Hourly Data Report for October 01, 2014

All times are specified in Local Standard Time (LST). Add 1 hour to adjust for Daylight Saving Time where and when it is observed.

FREDERICTON
NEW BRUNSWICK

45°52'08.000" N
66°32'14.000" W
20.70 m
8101505
71700
YFC

Download Data

Hourly Data (October 2014)
Hourly Data Report for October 1, 2014
Temp Definition
°C
Dew Point Temp Definition
°C
Rel Hum Definition
%
Wind Dir Definition
10's deg

Wind Spd Definition
km/h
Visibility Definition
km
Stn Press Definition
kPa
Hmdx Definition


Wind Chill Definition


Weather Definition


TIME
00:00 Legend Double Dagger 9.3 8.7 96 34 9 16.1 101.69     LegendNANA
01:00 Legend Double Dagger 8.5 8.1 98 30 4 16.1 101.71     LegendNANA
02:00 Legend Double Dagger 9.4 9.0 97 1 8 16.1 101.74     LegendNANA
03:00 Legend Double Dagger 10.0 9.1 94 2 5 16.1 101.76     LegendNANA
04:00 Legend Double Dagger 10.2 9.1 93 6 5 16.1 101.78     LegendNANA
05:00 Legend Double Dagger 10.2 9.3 94 36 9 16.1 101.79     LegendNANA
06:00 Legend Double Dagger 10.4 9.5 94 3 5 16.1 101.84     LegendNANA
07:00 Legend Double Dagger 10.5 9.6 94 2 11 16.1 101.90     LegendNANA
08:00 Legend Double Dagger 10.8 9.4 91 3 11 16.1 101.93     LegendNANA
09:00 Legend Double Dagger 11.6 9.4 87 6 15 16.1 101.99     LegendNANA
10:00 Legend Double Dagger 12.0 9.4 84 4 15 16.1 102.01     LegendNANA
11:00 Legend Double Dagger 12.3 9.4 82 5 17 16.1 102.01     LegendNANA
12:00 Legend Double Dagger 12.5 9.3 81 7 18 16.1 102.01     LegendNANA
13:00 Legend Double Dagger 12.5 9.4 81 4 15 16.1 101.98     LegendNANA
14:00 Legend Double Dagger 12.8 9.6 81 4 13 16.1 101.93     LegendNANA
15:00 Legend Double Dagger 12.8 9.5 80 2 17 16.1 101.94     LegendNANA
16:00 Legend Double Dagger 12.4 9.6 83 2 15 16.1 101.95     LegendNANA
17:00 Legend Double Dagger 12.1 9.5 84 3 15 16.1 101.97     LegendNANA
18:00 Legend Double Dagger 12.0 9.4 84 3 15 16.1 102.03     LegendNANA
19:00 Legend Double Dagger 10.9 10.0 94 5 17 14.5 102.11     LegendNANA
20:00 Legend Double Dagger 10.8 9.7 93 4 11 16.1 102.15     LegendNANA
21:00 Legend Double Dagger 10.4 7.3 81 2 15 16.1 102.16     LegendNANA
22:00 Legend Double Dagger 8.0 6.2 88 2 11 16.1 102.20     LegendNANA
23:00 Legend Double Dagger 7.3 5.9 91 3 13 16.1 102.18     LegendNANA

Notes on Data Quality.

Legend

  • E = Estimated
  • M = Missing
  • NA = Not Available
  • ‡ = Partner data that is not subject to review by the National Climate Archives
Date modified: